User: anonymous   Login
Location: Nebula Knoll Observatory
(43.6666°N, 71.0000°W)
Time: 14:27:48
(UTC-05:00)
Language:

SeaSat 1 - Orbit

View from above orbital plane
View from above orbital plane
View from above satellite
View from above satellite

Ground track
Ground track

The orbit data is extracted from the following two-line orbital elements,

1 10967U 78064A   18022.91679187 -.00000063 +00000-0 +21841-4 0  9999
2 10967 108.0192 038.6845 0002494 247.5026 112.5854 14.43691779078085
Epoch (UTC): 22 January 2018 22:00:10
Eccentricity: 0.0002494
inclination: 108.0192°
perigee height: 744 km
apogee height: 748 km
right ascension of ascending node: 38.6845°
argument of perigee: 247.5026°
revolutions per day: 14.43691779
mean anomaly at epoch: 112.5854°
orbit number at epoch: 7808

The dashed part of the orbit path shows where the satellite is in the earth's shadow,  

DLR